sat.trackr.live / text

‹ back to catalog

TIBA-1

NORAD 44800 · 2019-080A

PAYLOAD ACTIVE UNKNOWN

§ Identity

Operator
Country
EGYP
Launch date
2019-11-26
Launch site
FRGUI
Launch vehicle
Mass (kg)
RCS (m²)

Purposes: comms

External: N2YO · Heavens-Above · Gunter

§ Orbital elements

Epoch: 2026-05-25T03:54:46.287936Z

Period
1,436.07 min
Inclination
0.0531°
Eccentricity
0.0001996
Mean motion
1.00273326 rev/d
Perigee alt
35,777.7 km
Apogee alt
35,794.6 km
Semi-major
42,164.3 km
B*
0.0000e+0
RAAN
347.5067°
Arg perigee
91.9346°
Mean anomaly
257.5013°
Rev number
2,382

§ Raw data

TIBA-11 44800U 19080A   26145.16303574  .00000153  00000+0  00000+0 0  99982 44800   0.0531 347.5067 0001996  91.9346 257.5013  1.00273326 23828

JSON: /api/v1/satellites/44800 · /tle

For live sub-satellite position, see the globe view (requires WebGL).

§ Visibility from observer

Set your observer location to see the next 7 days of passes ≥ 10°. The values pass through the URL so the page stays shareable.

No JS? Fill the form by hand. The geolocation button needs JavaScript.